| time (UTC) | temp F | wind direction | speed knots | gust knots | rain 1hr in | rain 24hr in | rain mn in | humidity % | barometer mb |
| 20260902062345 | 58 | 0 | 1.7 | 0.0 | 0.00 | 0.00 | 0.00 | 78 | |
| 20260902061345 | 58 | 0 | 2.6 | 0.0 | 0.00 | 0.00 | 0.00 | 78 | |
| 20260902060315 | 58 | 0 | 2.6 | 0.0 | 0.00 | 0.00 | 0.00 | 78 | |
| 20260902055315 | 58 | 0 | 2.6 | 0.0 | 0.00 | 0.00 | 0.00 | 77 | |
| 20260902054245 | 59 | 0 | 1.7 | 0.0 | 0.00 | 0.00 | 0.00 | 77 | |
| 20260902053245 | 59 | 0 | 1.7 | 0.0 | 0.00 | 0.00 | 0.00 | 77 | |
| 20260902052215 | 59 | 0 | 1.7 | 0.0 | 0.00 | 0.00 | 0.00 | 76 | |
| 20260902051215 | 59 | 0 | 0.0 | 0.0 | 0.00 | 0.00 | 0.00 | 75 | |
| 20260902050145 | 59 | 0 | 0.9 | 0.0 | 0.00 | 0.00 | 0.00 | 73 | |
| 20260902045145 | 60 | 0 | 0.9 | 0.0 | 0.00 | 0.00 | 0.00 | 72 | |
| 20260902044115 | 60 | 0 | 0.9 | 0.0 | 0.00 | 0.00 | 0.00 | 71 | |
| 20260902043045 | 60 | 0 | 0.9 | 0.0 | 0.00 | 0.00 | 0.00 | 70 | |
| 20260902042015 | 61 | 0 | 0.9 | 0.0 | 0.00 | 0.00 | 0.00 | 68 | |
| 20260902041015 | 61 | 0 | 0.0 | 0.0 | 0.00 | 0.00 | 0.00 | 67 | |
| 20260902035945 | 62 | 0 | 0.0 | 0.0 | 0.00 | 0.00 | 0.00 | 66 | |
| 20260902034945 | 62 | 0 | 2.6 | 0.0 | 0.00 | 0.00 | 0.00 | 65 | |
| 20260902033915 | 63 | 0 | 1.7 | 0.0 | 0.00 | 0.00 | 0.00 | 64 | |
| 20260902032915 | 63 | 0 | 1.7 | 0.0 | 0.00 | 0.00 | 0.00 | 63 | |
| 20260902031915 | 64 | 0 | 1.7 | 0.0 | 0.00 | 0.00 | 0.00 | 62 | |
| 20260902030915 | 64 | 0 | 1.7 | 0.0 | 0.00 | 0.00 | 0.00 | 61 | |
| 20260902025845 | 65 | 0 | 3.5 | 0.0 | 0.00 | 0.00 | 0.00 | 61 | |
| 20260902024815 | 65 | 0 | 3.5 | 0.0 | 0.00 | 0.00 | 0.00 | 60 | |
| 20260902023745 | 66 | 0 | 1.7 | 0.0 | 0.00 | 0.00 | 0.00 | 58 | |
| 20260902022745 | 67 | 0 | 4.3 | 0.0 | 0.00 | 0.00 | 0.00 | 56 | |
| 20260902021715 | 67 | 0 | 2.6 | 0.0 | 0.00 | 0.00 | 0.00 | 55 | |
| 20260902020715 | 68 | 0 | 0.9 | 0.0 | 0.00 | 0.00 | 0.00 | 53 | |
| 20260902015715 | 69 | 0 | 3.5 | 0.0 | 0.00 | 0.00 | 0.00 | 53 | |
| 20260902014715 | 70 | 0 | 0.9 | 0.0 | 0.00 | 0.00 | 0.00 | 51 | |
| 20260902013645 | 70 | 0 | 8.7 | 0.0 | 0.00 | 0.00 | 0.00 | 49 | |
| 20260902012645 | 71 | 0 | 2.6 | 0.0 | 0.00 | 0.00 | 0.00 | 49 | |
| 20260902011615 | 71 | 0 | 2.6 | 0.0 | 0.00 | 0.00 | 0.00 | 49 | |
| 20260902010545 | 71 | 0 | 3.5 | 0.0 | 0.00 | 0.00 | 0.00 | 48 | |
| 20260902005545 | 72 | 0 | 3.5 | 0.0 | 0.00 | 0.00 | 0.00 | 45 | |
| 20260902004545 | 73 | 0 | 3.5 | 0.0 | 0.00 | 0.00 | 0.00 | 45 | |
| 20260902003515 | 73 | 0 | 3.5 | 0.0 | 0.00 | 0.00 | 0.00 | 46 | |
| 20260902002445 | 75 | 0 | 3.5 | 0.0 | 0.00 | 0.00 | 0.00 | 45 | |
| 20260902001445 | 77 | 0 | 2.6 | 0.0 | 0.00 | 0.00 | 0.00 | 45 | |
| 20260902000415 | 77 | 0 | 1.7 | 0.0 | 0.00 | 0.00 | 0.00 | 45 | |
| 20260901235415 | 79 | 0 | 6.1 | 0.0 | 0.00 | 0.00 | 0.00 | 43 | |
| 20260901234415 | 79 | 0 | 2.6 | 0.0 | 0.00 | 0.00 | 0.00 | 44 | |
| 20260901233415 | 80 | 0 | 7.0 | 0.0 | 0.00 | 0.00 | 0.00 | 42 | |
| 20260901232416 | 80 | 0 | 3.5 | 0.0 | 0.00 | 0.00 | 0.00 | 43 | |
| 20260901231345 | 80 | 0 | 6.1 | 0.0 | 0.00 | 0.00 | 0.00 | 44 | |
| 20260901230315 | 77 | 0 | 2.6 | 0.0 | 0.00 | 0.00 | 0.00 | 46 | |
| 20260901225315 | 79 | 0 | 4.3 | 0.0 | 0.00 | 0.00 | 0.00 | 45 | |
| 20260901224245 | 78 | 0 | 4.3 | 0.0 | 0.00 | 0.00 | 0.00 | 46 | |
| 20260901223215 | 78 | 0 | 9.6 | 0.0 | 0.00 | 0.00 | 0.00 | 45 | |
| 20260901222145 | 77 | 0 | 1.7 | 0.0 | 0.00 | 0.00 | 0.00 | 46 | |
| 20260901221115 | 76 | 0 | 6.1 | 0.0 | 0.00 | 0.00 | 0.00 | 47 | |
| 20260901220045 | 76 | 0 | 4.3 | 0.0 | 0.00 | 0.00 | 0.00 | 48 | |
| 20260901215015 | 78 | 0 | 4.3 | 0.0 | 0.00 | 0.00 | 0.00 | 47 | |
| 20260901214015 | 77 | 0 | 6.1 | 0.0 | 0.00 | 0.00 | 0.00 | 47 | |
| 20260901212945 | 79 | 0 | 1.7 | 0.0 | 0.00 | 0.00 | 0.00 | 45 | |
| 20260901211915 | 76 | 0 | 5.2 | 0.0 | 0.00 | 0.00 | 0.00 | 49 | |
| 20260901210915 | 75 | 0 | 0.0 | 0.0 | 0.00 | 0.00 | 0.00 | 52 | |
| 20260901205845 | 75 | 0 | 7.8 | 0.0 | 0.00 | 0.00 | 0.00 | 50 | |
| 20260901204845 | 74 | 0 | 5.2 | 0.0 | 0.00 | 0.00 | 0.00 | 52 | |
| 20260901203815 | 73 | 0 | 2.6 | 0.0 | 0.00 | 0.00 | 0.00 | 54 | |
| 20260901202815 | 73 | 0 | 1.7 | 0.0 | 0.00 | 0.00 | 0.00 | 55 | |
| 20260901201815 | 72 | 0 | 2.6 | 0.0 | 0.00 | 0.00 | 0.00 | 56 | |
| 20260901200815 | 72 | 0 | 0.9 | 0.0 | 0.00 | 0.00 | 0.00 | 55 | |
| 20260901195815 | 74 | 0 | 1.7 | 0.0 | 0.00 | 0.00 | 0.00 | 53 | |
| 20260901194745 | 72 | 0 | 2.6 | 0.0 | 0.00 | 0.00 | 0.00 | 55 | |
| 20260901193715 | 70 | 0 | 5.2 | 0.0 | 0.00 | 0.00 | 0.00 | 57 | |
| 20260901192645 | 70 | 0 | 1.7 | 0.0 | 0.00 | 0.00 | 0.00 | 57 | |
| 20260901191645 | 70 | 0 | 7.8 | 0.0 | 0.00 | 0.00 | 0.00 | 58 | |
| 20260901190615 | 69 | 0 | 4.3 | 0.0 | 0.00 | 0.00 | 0.00 | 59 | |
| 20260901185615 | 69 | 0 | 1.7 | 0.0 | 0.00 | 0.00 | 0.00 | 59 | |
| 20260901184615 | 68 | 0 | 3.5 | 0.0 | 0.00 | 0.00 | 0.00 | 60 | |
| 20260901183545 | 68 | 0 | 4.3 | 0.0 | 0.00 | 0.00 | 0.00 | 60 | |
| 20260901182545 | 69 | 0 | 3.5 | 0.0 | 0.00 | 0.00 | 0.00 | 59 | |
| 20260901181515 | 68 | 0 | 5.2 | 0.0 | 0.00 | 0.00 | 0.00 | 61 | |
| 20260901180445 | 66 | 0 | 4.3 | 0.0 | 0.00 | 0.00 | 0.00 | 64 | |
| 20260901175415 | 67 | 0 | 3.5 | 0.0 | 0.00 | 0.00 | 0.00 | 64 | |
| 20260901174345 | 65 | 0 | 1.7 | 0.0 | 0.00 | 0.00 | 0.00 | 66 | |
| 20260901173345 | 64 | 0 | 1.7 | 0.0 | 0.00 | 0.00 | 0.00 | 69 | |
| 20260901172345 | 63 | 0 | 3.5 | 0.0 | 0.00 | 0.00 | 0.00 | 70 | |
| 20260901171315 | 62 | 0 | 4.3 | 0.0 | 0.00 | 0.00 | 0.00 | 73 | |
| 20260901170245 | 61 | 0 | 3.5 | 0.0 | 0.00 | 0.00 | 0.00 | 72 | |
| 20260901165215 | 62 | 0 | 3.5 | 0.0 | 0.00 | 0.00 | 0.00 | 73 | |
| 20260901164145 | 60 | 0 | 5.2 | 0.0 | 0.00 | 0.00 | 0.00 | 75 | |
| 20260901163145 | 60 | 0 | 2.6 | 0.0 | 0.00 | 0.00 | 0.00 | 76 | |
| 20260901162115 | 59 | 0 | 2.6 | 0.0 | 0.00 | 0.00 | 0.00 | 76 | |
| 20260901161045 | 60 | 0 | 3.5 | 0.0 | 0.00 | 0.00 | 0.00 | 76 | |
| 20260901160015 | 59 | 0 | 6.1 | 0.0 | 0.00 | 0.00 | 0.00 | 77 | |
| 20260901155015 | 59 | 0 | 5.2 | 0.0 | 0.00 | 0.00 | 0.00 | 78 | |
| 20260901154015 | 59 | 0 | 6.1 | 0.0 | 0.00 | 0.00 | 0.00 | 78 | |
| 20260901153015 | 58 | 0 | 1.7 | 0.0 | 0.00 | 0.00 | 0.00 | 80 | |
| 20260901151945 | 58 | 0 | 6.1 | 0.0 | 0.00 | 0.00 | 0.00 | 81 | |
| 20260901150945 | 57 | 0 | 2.6 | 0.0 | 0.00 | 0.00 | 0.00 | 82 | |
| 20260901145945 | 57 | 0 | 3.5 | 0.0 | 0.00 | 0.00 | 0.00 | 83 | |
| 20260901144945 | 57 | 0 | 3.5 | 0.0 | 0.00 | 0.00 | 0.00 | 85 | |
| 20260901143950 | 56 | 0 | 3.5 | 0.0 | 0.00 | 0.00 | 0.00 | 87 | |
| 20260901143915 | 56 | 0 | 3.5 | 0.0 | 0.00 | 0.00 | 0.00 | 87 | |
| 20260901142915 | 56 | 0 | 2.6 | 0.0 | 0.00 | 0.00 | 0.00 | 87 | |
| 20260901141845 | 56 | 0 | 3.5 | 0.0 | 0.00 | 0.00 | 0.00 | 88 | |
| 20260901140845 | 55 | 0 | 2.6 | 0.0 | 0.00 | 0.00 | 0.00 | 89 | |
| 20260901135815 | 55 | 0 | 2.6 | 0.0 | 0.00 | 0.00 | 0.00 | 89 | |
| 20260901134815 | 55 | 0 | 3.5 | 0.0 | 0.00 | 0.00 | 0.00 | 89 | |
| 20260901133745 | 55 | 0 | 2.6 | 0.0 | 0.00 | 0.00 | 0.00 | 90 | |
| 20260901132745 | 55 | 0 | 3.5 | 0.0 | 0.00 | 0.00 | 0.00 | 90 | |
| 20260901131745 | 55 | 0 | 2.6 | 0.0 | 0.00 | 0.00 | 0.00 | 90 | |
| 20260901130745 | 55 | 0 | 5.2 | 0.0 | 0.00 | 0.00 | 0.00 | 90 | |
| 20260901125745 | 55 | 0 | 3.5 | 0.0 | 0.00 | 0.00 | 0.00 | 90 | |
| 20260901124715 | 55 | 0 | 1.7 | 0.0 | 0.00 | 0.00 | 0.00 | 90 | |
| 20260901123715 | 55 | 0 | 5.2 | 0.0 | 0.00 | 0.00 | 0.00 | 90 | |
| 20260901122715 | 55 | 0 | 4.3 | 0.0 | 0.00 | 0.00 | 0.00 | 90 | |
| 20260901121645 | 55 | 0 | 2.6 | 0.0 | 0.00 | 0.00 | 0.00 | 90 | |
| 20260901120615 | 55 | 0 | 1.7 | 0.0 | 0.00 | 0.00 | 0.00 | 91 | |
| 20260901115545 | 55 | 0 | 2.6 | 0.0 | 0.00 | 0.00 | 0.00 | 91 | |
| 20260901114545 | 55 | 0 | 1.7 | 0.0 | 0.00 | 0.00 | 0.00 | 91 | |
| 20260901113515 | 55 | 0 | 1.7 | 0.0 | 0.00 | 0.00 | 0.00 | 91 | |
| 20260901112445 | 55 | 0 | 4.3 | 0.0 | 0.00 | 0.00 | 0.00 | 92 | |
| 20260901111415 | 54 | 0 | 3.5 | 0.0 | 0.00 | 0.00 | 0.00 | 92 | |
| 20260901110415 | 54 | 0 | 1.7 | 0.0 | 0.00 | 0.00 | 0.00 | 92 | |
| 20260901105345 | 54 | 0 | 2.6 | 0.0 | 0.00 | 0.00 | 0.00 | 92 | |
| 20260901104315 | 54 | 0 | 2.6 | 0.0 | 0.00 | 0.00 | 0.00 | 92 | |
| 20260901103315 | 54 | 0 | 5.2 | 0.0 | 0.00 | 0.00 | 0.00 | 92 | |
| 20260901102245 | 54 | 0 | 1.7 | 0.0 | 0.00 | 0.00 | 0.00 | 92 | |
| 20260901101215 | 54 | 0 | 2.6 | 0.0 | 0.00 | 0.00 | 0.00 | 92 | |
| 20260901100145 | 54 | 0 | 1.7 | 0.0 | 0.00 | 0.00 | 0.00 | 92 | |
| 20260901095145 | 54 | 0 | 4.3 | 0.0 | 0.00 | 0.00 | 0.00 | 91 | |
| 20260901094115 | 54 | 0 | 3.5 | 0.0 | 0.00 | 0.00 | 0.00 | 91 | |
| 20260901093045 | 54 | 0 | 3.5 | 0.0 | 0.00 | 0.00 | 0.00 | 90 | |
| 20260901092045 | 54 | 0 | 2.6 | 0.0 | 0.00 | 0.00 | 0.00 | 90 | |
| 20260901091045 | 55 | 0 | 2.6 | 0.0 | 0.00 | 0.00 | 0.00 | 89 | |
| 20260901090015 | 55 | 0 | 1.7 | 0.0 | 0.00 | 0.00 | 0.00 | 89 | |
| 20260901084945 | 55 | 0 | 3.5 | 0.0 | 0.00 | 0.00 | 0.00 | 89 | |
| 20260901083945 | 55 | 0 | 3.5 | 0.0 | 0.00 | 0.00 | 0.00 | 88 | |
| 20260901082915 | 55 | 0 | 1.7 | 0.0 | 0.00 | 0.00 | 0.00 | 88 | |
| 20260901081845 | 55 | 0 | 0.0 | 0.0 | 0.00 | 0.00 | 0.00 | 88 | |
| 20260901080815 | 55 | 0 | 2.6 | 0.0 | 0.00 | 0.00 | 0.00 | 87 | |
| 20260901075815 | 55 | 0 | 1.7 | 0.0 | 0.00 | 0.00 | 0.00 | 87 | |
| 20260901074745 | 55 | 0 | 1.7 | 0.0 | 0.00 | 0.00 | 0.00 | 87 | |
| 20260901073715 | 56 | 0 | 1.7 | 0.0 | 0.00 | 0.00 | 0.00 | 86 | |
| 20260901072715 | 56 | 0 | 1.7 | 0.0 | 0.00 | 0.00 | 0.00 | 86 | |
| 20260901071743 | 56 | 0 | 0.9 | 0.0 | 0.00 | 0.00 | 0.00 | 85 | |
| 20260901071645 | 56 | 0 | 0.9 | 0.0 | 0.00 | 0.00 | 0.00 | 85 | |
| 20260901070645 | 57 | 0 | 0.0 | 0.0 | 0.00 | 0.00 | 0.00 | 84 | |
| 20260901065615 | 57 | 0 | 1.7 | 0.0 | 0.00 | 0.00 | 0.00 | 83 | |
| 20260901064545 | 57 | 0 | 2.6 | 0.0 | 0.00 | 0.00 | 0.00 | 82 | |
| 20260901063545 | 57 | 0 | 1.7 | 0.0 | 0.00 | 0.00 | 0.00 | 82 |